owner,sensor,date,latitude,longitude,vertical_datum,mass_concentration_of_oxygen_in_sea_water,qcFlag 
SCCF RECON,ioos:station:SCCF:13:1,2010-12-01T00:00:00Z,26.5255,-82.0032,2.608,6.94,1111122 
SCCF RECON,ioos:station:SCCF:13:1,2010-12-01T01:00:00Z,26.5255,-82.0032,2.678,6.87,1111122 
SCCF RECON,ioos:station:SCCF:13:1,2010-12-01T02:00:00Z,26.5255,-82.0032,2.72,7.29,1111122 
SCCF RECON,ioos:station:SCCF:13:1,2010-12-01T03:00:00Z,26.5255,-82.0032,2.714,7.24,1111122 
SCCF RECON,ioos:station:SCCF:13:1,2010-12-01T04:00:00Z,26.5255,-82.0032,2.65,6.92,1111122 
SCCF RECON,ioos:station:SCCF:13:1,2010-12-01T05:00:00Z,26.5255,-82.0032,2.56,6.8,1111122 
SCCF RECON,ioos:station:SCCF:13:1,2010-12-01T06:00:00Z,26.5255,-82.0032,2.45,6.54,1111122 
SCCF RECON,ioos:station:SCCF:13:1,2010-12-01T07:00:00Z,26.5255,-82.0032,2.36,6.31,1111122 
SCCF RECON,ioos:station:SCCF:13:1,2010-12-01T08:00:00Z,26.5255,-82.0032,2.274,6.24,1111122 
SCCF RECON,ioos:station:SCCF:13:1,2010-12-01T09:00:00Z,26.5255,-82.0032,2.215,6.17,1111122 
SCCF RECON,ioos:station:SCCF:13:1,2010-12-01T10:00:00Z,26.5255,-82.0032,2.24,6.15,1111122 
SCCF RECON,ioos:station:SCCF:13:1,2010-12-01T11:00:00Z,26.5255,-82.0032,2.324,6.1,1111122 
SCCF RECON,ioos:station:SCCF:13:1,2010-12-01T12:00:00Z,26.5255,-82.0032,2.391,5.91,1111122 
SCCF RECON,ioos:station:SCCF:13:1,2010-12-01T13:00:00Z,26.5255,-82.0032,2.45,5.72,1111122 
SCCF RECON,ioos:station:SCCF:13:1,2010-12-01T14:00:00Z,26.5255,-82.0032,2.39,5.55,1111122 
SCCF RECON,ioos:station:SCCF:13:1,2010-12-01T15:00:00Z,26.5255,-82.0032,2.32,5.7,1111122 
SCCF RECON,ioos:station:SCCF:13:1,2010-12-01T16:00:00Z,26.5255,-82.0032,2.365,5.98,1111122 
SCCF RECON,ioos:station:SCCF:13:1,2010-12-01T17:00:00Z,26.5255,-82.0032,2.368,5.99,1111122 
SCCF RECON,ioos:station:SCCF:13:1,2010-12-01T18:00:00Z,26.5255,-82.0032,2.32,6.14,1111122 
SCCF RECON,ioos:station:SCCF:13:1,2010-12-01T19:00:00Z,26.5255,-82.0032,2.22,6.46,1111122 
SCCF RECON,ioos:station:SCCF:13:1,2010-12-01T20:00:00Z,26.5255,-82.0032,2.125,6.91,1111122 
SCCF RECON,ioos:station:SCCF:13:1,2010-12-01T21:00:00Z,26.5255,-82.0032,2.058,6.98,1111122 
SCCF RECON,ioos:station:SCCF:13:1,2010-12-01T22:00:00Z,26.5255,-82.0032,2.059,7.03,1111122 
SCCF RECON,ioos:station:SCCF:13:1,2010-12-01T23:00:00Z,26.5255,-82.0032,2.18,6.95,1111122 
SCCF RECON,ioos:station:SCCF:13:1,2010-12-02T00:00:00Z,26.5255,-82.0032,2.29,6.83,1111122 
SCCF RECON,ioos:station:SCCF:13:1,2010-12-02T01:00:00Z,26.5255,-82.0032,2.35,6.95,1111122 
SCCF RECON,ioos:station:SCCF:13:1,2010-12-02T02:00:00Z,26.5255,-82.0032,2.38,6.7,1111122 
SCCF RECON,ioos:station:SCCF:13:1,2010-12-02T03:00:00Z,26.5255,-82.0032,2.38,6.64,1111122 
SCCF RECON,ioos:station:SCCF:13:1,2010-12-02T04:00:00Z,26.5255,-82.0032,2.32,6.53,1111122 
SCCF RECON,ioos:station:SCCF:13:1,2010-12-02T05:00:00Z,26.5255,-82.0032,2.24,6.49,1111122 
SCCF RECON,ioos:station:SCCF:13:1,2010-12-02T06:00:00Z,26.5255,-82.0032,2.17,6.38,1111122 
SCCF RECON,ioos:station:SCCF:13:1,2010-12-02T07:00:00Z,26.5255,-82.0032,2.1,6.24,1111122 
SCCF RECON,ioos:station:SCCF:13:1,2010-12-02T08:00:00Z,26.5255,-82.0032,2.011,6.42,1111122 
SCCF RECON,ioos:station:SCCF:13:1,2010-12-02T09:00:00Z,26.5255,-82.0032,1.931,6.5,1111122 
SCCF RECON,ioos:station:SCCF:13:1,2010-12-02T10:00:00Z,26.5255,-82.0032,1.87,6.64,1111122 
SCCF RECON,ioos:station:SCCF:13:1,2010-12-02T11:00:00Z,26.5255,-82.0032,1.863,6.77,1111122 
SCCF RECON,ioos:station:SCCF:13:1,2010-12-02T12:00:00Z,26.5255,-82.0032,1.929,6.79,1111122 
SCCF RECON,ioos:station:SCCF:13:1,2010-12-02T13:00:00Z,26.5255,-82.0032,2.02,6.8,1111122 
SCCF RECON,ioos:station:SCCF:13:1,2010-12-02T14:00:00Z,26.5255,-82.0032,2.11,6.77,1111122 
SCCF RECON,ioos:station:SCCF:13:1,2010-12-02T15:00:00Z,26.5255,-82.0032,2.2,6.92,1111122 
SCCF RECON,ioos:station:SCCF:13:1,2010-12-02T16:00:00Z,26.5255,-82.0032,2.247,6.85,1111122 
SCCF RECON,ioos:station:SCCF:13:1,2010-12-02T17:00:00Z,26.5255,-82.0032,2.257,6.81,1111122 
SCCF RECON,ioos:station:SCCF:13:1,2010-12-02T18:00:00Z,26.5255,-82.0032,2.22,6.92,1111122 
SCCF RECON,ioos:station:SCCF:13:1,2010-12-02T19:00:00Z,26.5255,-82.0032,2.19,6.88,1111122 
SCCF RECON,ioos:station:SCCF:13:1,2010-12-02T20:00:00Z,26.5255,-82.0032,2.177,7.12,1111122 
SCCF RECON,ioos:station:SCCF:13:1,2010-12-02T21:00:00Z,26.5255,-82.0032,2.17,7.14,1111122 
SCCF RECON,ioos:station:SCCF:13:1,2010-12-02T22:00:00Z,26.5255,-82.0032,2.211,7.29,1111122 
SCCF RECON,ioos:station:SCCF:13:1,2010-12-02T23:00:00Z,26.5255,-82.0032,2.289,7.18,1111122 
SCCF RECON,ioos:station:SCCF:13:1,2010-12-03T00:00:00Z,26.5255,-82.0032,2.37,7.14,1111122 
SCCF RECON,ioos:station:SCCF:13:1,2010-12-03T01:00:00Z,26.5255,-82.0032,2.449,7.1,1111122 
SCCF RECON,ioos:station:SCCF:13:1,2010-12-03T02:00:00Z,26.5255,-82.0032,2.5,7.02,1111122 
SCCF RECON,ioos:station:SCCF:13:1,2010-12-03T03:00:00Z,26.5255,-82.0032,2.54,7.13,1111122 
SCCF RECON,ioos:station:SCCF:13:1,2010-12-03T04:00:00Z,26.5255,-82.0032,2.53,6.98,1111122 
SCCF RECON,ioos:station:SCCF:13:1,2010-12-03T05:00:00Z,26.5255,-82.0032,2.43,6.82,1111122 
SCCF RECON,ioos:station:SCCF:13:1,2010-12-03T06:00:00Z,26.5255,-82.0032,2.321,6.81,1111122 
SCCF RECON,ioos:station:SCCF:13:1,2010-12-03T07:00:00Z,26.5255,-82.0032,2.231,6.82,1111122 
SCCF RECON,ioos:station:SCCF:13:1,2010-12-03T08:00:00Z,26.5255,-82.0032,2.15,6.92,1111122 
SCCF RECON,ioos:station:SCCF:13:1,2010-12-03T09:00:00Z,26.5255,-82.0032,2.07,6.92,1111122 
SCCF RECON,ioos:station:SCCF:13:1,2010-12-03T10:00:00Z,26.5255,-82.0032,1.988,7.06,1111122 
SCCF RECON,ioos:station:SCCF:13:1,2010-12-03T11:00:00Z,26.5255,-82.0032,1.921,7.22,1111122 
SCCF RECON,ioos:station:SCCF:13:1,2010-12-03T12:00:00Z,26.5255,-82.0032,1.93,7.2,1111122 
SCCF RECON,ioos:station:SCCF:13:1,2010-12-03T13:00:00Z,26.5255,-82.0032,2.01,7.22,1111122 
SCCF RECON,ioos:station:SCCF:13:1,2010-12-03T14:00:00Z,26.5255,-82.0032,2.11,7.33,1111122 
SCCF RECON,ioos:station:SCCF:13:1,2010-12-03T15:00:00Z,26.5255,-82.0032,2.197,7.34,1111122 
SCCF RECON,ioos:station:SCCF:13:1,2010-12-03T16:00:00Z,26.5255,-82.0032,2.27,7.37,1111122 
SCCF RECON,ioos:station:SCCF:13:1,2010-12-03T17:00:00Z,26.5255,-82.0032,2.296,7.38,1111122 
SCCF RECON,ioos:station:SCCF:13:1,2010-12-03T18:00:00Z,26.5255,-82.0032,2.291,7.63,1111122 
SCCF RECON,ioos:station:SCCF:13:1,2010-12-03T19:00:00Z,26.5255,-82.0032,2.266,7.56,1111122 
SCCF RECON,ioos:station:SCCF:13:1,2010-12-03T20:00:00Z,26.5255,-82.0032,2.245,7.58,1111122 
SCCF RECON,ioos:station:SCCF:13:1,2010-12-03T21:00:00Z,26.5255,-82.0032,2.245,7.86,1111122 
SCCF RECON,ioos:station:SCCF:13:1,2010-12-03T22:00:00Z,26.5255,-82.0032,2.28,8.04,1111122 
SCCF RECON,ioos:station:SCCF:13:1,2010-12-03T23:00:00Z,26.5255,-82.0032,2.318,7.68,1111122 
SCCF RECON,ioos:station:SCCF:13:1,2010-12-04T00:00:00Z,26.5255,-82.0032,2.39,7.72,1111122 
SCCF RECON,ioos:station:SCCF:13:1,2010-12-04T01:00:00Z,26.5255,-82.0032,2.482,7.51,1111122 
SCCF RECON,ioos:station:SCCF:13:1,2010-12-04T02:00:00Z,26.5255,-82.0032,2.552,7.42,1111122 
SCCF RECON,ioos:station:SCCF:13:1,2010-12-04T03:00:00Z,26.5255,-82.0032,2.61,7.38,1111122 
SCCF RECON,ioos:station:SCCF:13:1,2010-12-04T04:00:00Z,26.5255,-82.0032,2.65,7.32,1111122 
SCCF RECON,ioos:station:SCCF:13:1,2010-12-04T05:00:00Z,26.5255,-82.0032,2.63,7.17,1111122 
SCCF RECON,ioos:station:SCCF:13:1,2010-12-04T06:00:00Z,26.5255,-82.0032,2.526,7.04,1111122 
SCCF RECON,ioos:station:SCCF:13:1,2010-12-04T07:00:00Z,26.5255,-82.0032,2.42,7.0,1111122 
SCCF RECON,ioos:station:SCCF:13:1,2010-12-04T08:00:00Z,26.5255,-82.0032,2.33,7.09,1111122 
SCCF RECON,ioos:station:SCCF:13:1,2010-12-04T09:00:00Z,26.5255,-82.0032,2.24,7.15,1111122 
SCCF RECON,ioos:station:SCCF:13:1,2010-12-04T10:00:00Z,26.5255,-82.0032,2.148,7.2,1111122 
SCCF RECON,ioos:station:SCCF:13:1,2010-12-04T11:00:00Z,26.5255,-82.0032,2.07,7.42,1111122 
SCCF RECON,ioos:station:SCCF:13:1,2010-12-04T12:00:00Z,26.5255,-82.0032,2.03,7.48,1111122 
SCCF RECON,ioos:station:SCCF:13:1,2010-12-04T13:00:00Z,26.5255,-82.0032,2.069,7.55,1111122 
SCCF RECON,ioos:station:SCCF:13:1,2010-12-04T14:00:00Z,26.5255,-82.0032,2.19,7.68,1111122 
SCCF RECON,ioos:station:SCCF:13:1,2010-12-04T15:00:00Z,26.5255,-82.0032,2.29,7.73,1111122 
SCCF RECON,ioos:station:SCCF:13:1,2010-12-04T16:00:00Z,26.5255,-82.0032,2.36,7.68,1111122 
SCCF RECON,ioos:station:SCCF:13:1,2010-12-04T17:00:00Z,26.5255,-82.0032,2.42,7.71,1111122 
SCCF RECON,ioos:station:SCCF:13:1,2010-12-04T18:00:00Z,26.5255,-82.0032,2.45,7.6,1111122 
SCCF RECON,ioos:station:SCCF:13:1,2010-12-04T19:00:00Z,26.5255,-82.0032,2.46,7.75,1111122 
SCCF RECON,ioos:station:SCCF:13:1,2010-12-04T20:00:00Z,26.5255,-82.0032,2.42,8.04,1111122 
SCCF RECON,ioos:station:SCCF:13:1,2010-12-04T21:00:00Z,26.5255,-82.0032,2.38,7.91,1111122 
SCCF RECON,ioos:station:SCCF:13:1,2010-12-04T22:00:00Z,26.5255,-82.0032,2.37,7.94,1111122 
SCCF RECON,ioos:station:SCCF:13:1,2010-12-04T23:00:00Z,26.5255,-82.0032,2.38,7.82,1111122 
SCCF RECON,ioos:station:SCCF:13:1,2010-12-05T00:00:00Z,26.5255,-82.0032,2.44,7.83,1111122 
SCCF RECON,ioos:station:SCCF:13:1,2010-12-05T01:00:00Z,26.5255,-82.0032,2.53,7.76,1111122 
SCCF RECON,ioos:station:SCCF:13:1,2010-12-05T02:00:00Z,26.5255,-82.0032,2.62,7.93,1111122 
SCCF RECON,ioos:station:SCCF:13:1,2010-12-05T03:00:00Z,26.5255,-82.0032,2.684,7.85,1111122 
SCCF RECON,ioos:station:SCCF:13:1,2010-12-05T04:00:00Z,26.5255,-82.0032,2.732,7.62,1111122 
SCCF RECON,ioos:station:SCCF:13:1,2010-12-05T05:00:00Z,26.5255,-82.0032,2.759,7.41,1111122 
SCCF RECON,ioos:station:SCCF:13:1,2010-12-05T06:00:00Z,26.5255,-82.0032,2.72,7.22,1111122 
SCCF RECON,ioos:station:SCCF:13:1,2010-12-05T07:00:00Z,26.5255,-82.0032,2.6,7.16,1111122 
SCCF RECON,ioos:station:SCCF:13:1,2010-12-05T08:00:00Z,26.5255,-82.0032,2.48,7.14,1111122 
SCCF RECON,ioos:station:SCCF:13:1,2010-12-05T09:00:00Z,26.5255,-82.0032,2.39,7.28,1111122 
SCCF RECON,ioos:station:SCCF:13:1,2010-12-05T10:00:00Z,26.5255,-82.0032,2.291,7.28,1111122 
SCCF RECON,ioos:station:SCCF:13:1,2010-12-05T11:00:00Z,26.5255,-82.0032,2.201,7.46,1111122 
SCCF RECON,ioos:station:SCCF:13:1,2010-12-05T12:00:00Z,26.5255,-82.0032,2.126,7.57,1111122 
SCCF RECON,ioos:station:SCCF:13:1,2010-12-05T13:00:00Z,26.5255,-82.0032,2.09,7.61,1111122 
SCCF RECON,ioos:station:SCCF:13:1,2010-12-05T14:00:00Z,26.5255,-82.0032,2.16,7.69,1111122 
SCCF RECON,ioos:station:SCCF:13:1,2010-12-05T15:00:00Z,26.5255,-82.0032,2.29,7.75,1111122 
SCCF RECON,ioos:station:SCCF:13:1,2010-12-05T16:00:00Z,26.5255,-82.0032,2.36,7.72,1111122 
SCCF RECON,ioos:station:SCCF:13:1,2010-12-05T17:00:00Z,26.5255,-82.0032,2.41,7.98,1111122 
SCCF RECON,ioos:station:SCCF:13:1,2010-12-05T18:00:00Z,26.5255,-82.0032,2.46,7.79,1111122 
SCCF RECON,ioos:station:SCCF:13:1,2010-12-05T19:00:00Z,26.5255,-82.0032,2.49,7.64,1111122 
SCCF RECON,ioos:station:SCCF:13:1,2010-12-05T20:00:00Z,26.5255,-82.0032,2.492,7.77,1111122 
SCCF RECON,ioos:station:SCCF:13:1,2010-12-05T21:00:00Z,26.5255,-82.0032,2.45,7.79,1111122 
SCCF RECON,ioos:station:SCCF:13:1,2010-12-05T22:00:00Z,26.5255,-82.0032,2.4,7.82,1111122 
SCCF RECON,ioos:station:SCCF:13:1,2010-12-05T23:00:00Z,26.5255,-82.0032,2.39,7.66,1111122 
SCCF RECON,ioos:station:SCCF:13:1,2010-12-06T00:00:00Z,26.5255,-82.0032,2.41,7.58,1111122 
SCCF RECON,ioos:station:SCCF:13:1,2010-12-06T01:00:00Z,26.5255,-82.0032,2.49,7.54,1111122 
SCCF RECON,ioos:station:SCCF:13:1,2010-12-06T02:00:00Z,26.5255,-82.0032,2.59,7.39,1111122 
SCCF RECON,ioos:station:SCCF:13:1,2010-12-06T03:00:00Z,26.5255,-82.0032,2.659,7.53,1111122 
SCCF RECON,ioos:station:SCCF:13:1,2010-12-06T04:00:00Z,26.5255,-82.0032,2.714,7.66,1111122 
SCCF RECON,ioos:station:SCCF:13:1,2010-12-06T05:00:00Z,26.5255,-82.0032,2.75,7.42,1111122 
SCCF RECON,ioos:station:SCCF:13:1,2010-12-06T06:00:00Z,26.5255,-82.0032,2.72,7.27,1111122 
SCCF RECON,ioos:station:SCCF:13:1,2010-12-06T07:00:00Z,26.5255,-82.0032,2.635,7.14,1111122 
SCCF RECON,ioos:station:SCCF:13:1,2010-12-06T08:00:00Z,26.5255,-82.0032,2.53,7.12,1111122 
SCCF RECON,ioos:station:SCCF:13:1,2010-12-06T09:00:00Z,26.5255,-82.0032,2.43,7.2,1111122 
SCCF RECON,ioos:station:SCCF:13:1,2010-12-06T10:00:00Z,26.5255,-82.0032,2.32,7.29,1111122 
SCCF RECON,ioos:station:SCCF:13:1,2010-12-06T11:00:00Z,26.5255,-82.0032,2.23,7.26,1111122 
SCCF RECON,ioos:station:SCCF:13:1,2010-12-06T12:00:00Z,26.5255,-82.0032,2.14,7.4,1111122 
SCCF RECON,ioos:station:SCCF:13:1,2010-12-06T13:00:00Z,26.5255,-82.0032,2.062,7.57,1111122 
SCCF RECON,ioos:station:SCCF:13:1,2010-12-06T14:00:00Z,26.5255,-82.0032,2.041,7.74,1111122 
SCCF RECON,ioos:station:SCCF:13:1,2010-12-06T15:00:00Z,26.5255,-82.0032,2.092,7.92,1111122 
SCCF RECON,ioos:station:SCCF:13:1,2010-12-06T16:00:00Z,26.5255,-82.0032,2.19,8.04,1111122 
SCCF RECON,ioos:station:SCCF:13:1,2010-12-06T17:00:00Z,26.5255,-82.0032,2.25,8.1,1111122 
SCCF RECON,ioos:station:SCCF:13:1,2010-12-06T18:00:00Z,26.5255,-82.0032,2.29,8.11,1111122 
SCCF RECON,ioos:station:SCCF:13:1,2010-12-06T19:00:00Z,26.5255,-82.0032,2.303,8.25,1111122 
SCCF RECON,ioos:station:SCCF:13:1,2010-12-06T20:00:00Z,26.5255,-82.0032,2.3,7.98,1111122 
SCCF RECON,ioos:station:SCCF:13:1,2010-12-06T21:00:00Z,26.5255,-82.0032,2.26,7.83,1111122 
SCCF RECON,ioos:station:SCCF:13:1,2010-12-06T22:00:00Z,26.5255,-82.0032,2.23,7.92,1111122 
SCCF RECON,ioos:station:SCCF:13:1,2010-12-06T23:00:00Z,26.5255,-82.0032,2.21,8.08,1111122 
SCCF RECON,ioos:station:SCCF:13:1,2010-12-07T00:00:00Z,26.5255,-82.0032,2.22,8.16,1111122 
SCCF RECON,ioos:station:SCCF:13:1,2010-12-07T01:00:00Z,26.5255,-82.0032,2.26,8.14,1111122 
SCCF RECON,ioos:station:SCCF:13:1,2010-12-07T02:00:00Z,26.5255,-82.0032,2.32,7.93,1111122 
SCCF RECON,ioos:station:SCCF:13:1,2010-12-07T03:00:00Z,26.5255,-82.0032,2.42,7.77,1111122 
SCCF RECON,ioos:station:SCCF:13:1,2010-12-07T04:00:00Z,26.5255,-82.0032,2.51,7.78,1111122 
SCCF RECON,ioos:station:SCCF:13:1,2010-12-07T05:00:00Z,26.5255,-82.0032,2.58,7.76,1111122 
SCCF RECON,ioos:station:SCCF:13:1,2010-12-07T06:00:00Z,26.5255,-82.0032,2.6,7.64,1111122 
SCCF RECON,ioos:station:SCCF:13:1,2010-12-07T07:00:00Z,26.5255,-82.0032,2.573,7.58,1111122 
SCCF RECON,ioos:station:SCCF:13:1,2010-12-07T08:00:00Z,26.5255,-82.0032,2.465,7.56,1111122 
SCCF RECON,ioos:station:SCCF:13:1,2010-12-07T09:00:00Z,26.5255,-82.0032,2.359,7.51,1111122 
SCCF RECON,ioos:station:SCCF:13:1,2010-12-07T10:00:00Z,26.5255,-82.0032,2.27,7.52,1111122 
SCCF RECON,ioos:station:SCCF:13:1,2010-12-07T11:00:00Z,26.5255,-82.0032,2.19,7.57,1111122 
SCCF RECON,ioos:station:SCCF:13:1,2010-12-07T12:00:00Z,26.5255,-82.0032,2.103,7.68,1111122 
SCCF RECON,ioos:station:SCCF:13:1,2010-12-07T13:00:00Z,26.5255,-82.0032,2.03,7.79,1111122 
SCCF RECON,ioos:station:SCCF:13:1,2010-12-07T14:00:00Z,26.5255,-82.0032,1.982,7.85,1111122 
SCCF RECON,ioos:station:SCCF:13:1,2010-12-07T15:00:00Z,26.5255,-82.0032,2.01,8.0,1111122 
SCCF RECON,ioos:station:SCCF:13:1,2010-12-07T16:00:00Z,26.5255,-82.0032,2.12,8.18,1111122 
SCCF RECON,ioos:station:SCCF:13:1,2010-12-07T17:00:00Z,26.5255,-82.0032,2.21,8.24,1111122 
SCCF RECON,ioos:station:SCCF:13:1,2010-12-07T18:00:00Z,26.5255,-82.0032,2.253,8.52,1111122 
SCCF RECON,ioos:station:SCCF:13:1,2010-12-07T19:00:00Z,26.5255,-82.0032,2.3,8.05,1111122 
SCCF RECON,ioos:station:SCCF:13:1,2010-12-07T20:00:00Z,26.5255,-82.0032,2.32,8.27,1111122 
SCCF RECON,ioos:station:SCCF:13:1,2010-12-07T21:00:00Z,26.5255,-82.0032,2.33,8.38,1111122 
SCCF RECON,ioos:station:SCCF:13:1,2010-12-07T22:00:00Z,26.5255,-82.0032,2.3,8.26,1111122 
SCCF RECON,ioos:station:SCCF:13:1,2010-12-07T23:00:00Z,26.5255,-82.0032,2.28,8.03,1111122 
SCCF RECON,ioos:station:SCCF:13:1,2010-12-08T00:00:00Z,26.5255,-82.0032,2.28,7.9,1111122 
SCCF RECON,ioos:station:SCCF:13:1,2010-12-08T01:00:00Z,26.5255,-82.0032,2.28,7.83,1111122 
SCCF RECON,ioos:station:SCCF:13:1,2010-12-08T02:00:00Z,26.5255,-82.0032,2.31,7.97,1111122 
SCCF RECON,ioos:station:SCCF:13:1,2010-12-08T03:00:00Z,26.5255,-82.0032,2.395,7.76,1111122 
SCCF RECON,ioos:station:SCCF:13:1,2010-12-08T04:00:00Z,26.5255,-82.0032,2.5,7.96,1111122 
SCCF RECON,ioos:station:SCCF:13:1,2010-12-08T05:00:00Z,26.5255,-82.0032,2.59,7.93,1111122 
SCCF RECON,ioos:station:SCCF:13:1,2010-12-08T06:00:00Z,26.5255,-82.0032,2.64,7.78,1111122 
SCCF RECON,ioos:station:SCCF:13:1,2010-12-08T07:00:00Z,26.5255,-82.0032,2.65,7.66,1111122 
SCCF RECON,ioos:station:SCCF:13:1,2010-12-08T08:00:00Z,26.5255,-82.0032,2.59,7.61,1111122 
SCCF RECON,ioos:station:SCCF:13:1,2010-12-08T09:00:00Z,26.5255,-82.0032,2.49,7.57,1111122 
SCCF RECON,ioos:station:SCCF:13:1,2010-12-08T10:00:00Z,26.5255,-82.0032,2.39,7.52,1111122 
SCCF RECON,ioos:station:SCCF:13:1,2010-12-08T11:00:00Z,26.5255,-82.0032,2.31,7.56,1111122 
SCCF RECON,ioos:station:SCCF:13:1,2010-12-08T12:00:00Z,26.5255,-82.0032,2.227,7.85,1111122 
SCCF RECON,ioos:station:SCCF:13:1,2010-12-08T13:00:00Z,26.5255,-82.0032,2.14,7.95,1111122 
SCCF RECON,ioos:station:SCCF:13:1,2010-12-08T14:00:00Z,26.5255,-82.0032,2.07,8.07,1111122 
SCCF RECON,ioos:station:SCCF:13:1,2010-12-08T15:00:00Z,26.5255,-82.0032,2.04,8.21,1111122 
SCCF RECON,ioos:station:SCCF:13:1,2010-12-08T16:00:00Z,26.5255,-82.0032,2.137,8.38,1111122 
SCCF RECON,ioos:station:SCCF:13:1,2010-12-08T17:00:00Z,26.5255,-82.0032,2.26,8.45,1111122 
SCCF RECON,ioos:station:SCCF:13:1,2010-12-08T18:00:00Z,26.5255,-82.0032,2.33,8.92,1111122 
SCCF RECON,ioos:station:SCCF:13:1,2010-12-08T19:00:00Z,26.5255,-82.0032,2.36,8.38,1111122 
SCCF RECON,ioos:station:SCCF:13:1,2010-12-08T20:00:00Z,26.5255,-82.0032,2.4,8.36,1111122 
SCCF RECON,ioos:station:SCCF:13:1,2010-12-08T21:00:00Z,26.5255,-82.0032,2.451,8.47,1111122 
SCCF RECON,ioos:station:SCCF:13:1,2010-12-08T22:00:00Z,26.5255,-82.0032,2.45,8.3,1111122 
SCCF RECON,ioos:station:SCCF:13:1,2010-12-08T23:00:00Z,26.5255,-82.0032,2.381,8.15,1111122 
SCCF RECON,ioos:station:SCCF:13:1,2010-12-09T00:00:00Z,26.5255,-82.0032,2.36,8.11,1111122 
SCCF RECON,ioos:station:SCCF:13:1,2010-12-09T01:00:00Z,26.5255,-82.0032,2.36,8.07,1111122 
SCCF RECON,ioos:station:SCCF:13:1,2010-12-09T02:00:00Z,26.5255,-82.0032,2.4,8.05,1111122 
SCCF RECON,ioos:station:SCCF:13:1,2010-12-09T03:00:00Z,26.5255,-82.0032,2.46,7.87,1111122 
SCCF RECON,ioos:station:SCCF:13:1,2010-12-09T04:00:00Z,26.5255,-82.0032,2.53,8.0,1111122 
SCCF RECON,ioos:station:SCCF:13:1,2010-12-09T05:00:00Z,26.5255,-82.0032,2.602,8.14,1111122 
SCCF RECON,ioos:station:SCCF:13:1,2010-12-09T06:00:00Z,26.5255,-82.0032,2.671,8.03,1111122 
SCCF RECON,ioos:station:SCCF:13:1,2010-12-09T07:00:00Z,26.5255,-82.0032,2.68,7.76,1111122 
SCCF RECON,ioos:station:SCCF:13:1,2010-12-09T08:00:00Z,26.5255,-82.0032,2.62,7.62,1111122 
SCCF RECON,ioos:station:SCCF:13:1,2010-12-09T09:00:00Z,26.5255,-82.0032,2.545,7.58,1111122 
SCCF RECON,ioos:station:SCCF:13:1,2010-12-09T10:00:00Z,26.5255,-82.0032,2.44,7.66,1111122 
SCCF RECON,ioos:station:SCCF:13:1,2010-12-09T11:00:00Z,26.5255,-82.0032,2.397,7.74,1111122 
SCCF RECON,ioos:station:SCCF:13:1,2010-12-09T12:00:00Z,26.5255,-82.0032,2.31,8.06,1111122 
SCCF RECON,ioos:station:SCCF:13:1,2010-12-09T13:00:00Z,26.5255,-82.0032,2.21,8.09,1111122 
SCCF RECON,ioos:station:SCCF:13:1,2010-12-09T14:00:00Z,26.5255,-82.0032,2.13,8.24,1111122 
SCCF RECON,ioos:station:SCCF:13:1,2010-12-09T15:00:00Z,26.5255,-82.0032,2.054,8.29,1111122 
SCCF RECON,ioos:station:SCCF:13:1,2010-12-09T16:00:00Z,26.5255,-82.0032,2.03,8.33,1111122 
SCCF RECON,ioos:station:SCCF:13:1,2010-12-09T17:00:00Z,26.5255,-82.0032,2.13,8.5,1111122 
SCCF RECON,ioos:station:SCCF:13:1,2010-12-09T18:00:00Z,26.5255,-82.0032,2.24,8.62,1111122 
SCCF RECON,ioos:station:SCCF:13:1,2010-12-09T19:00:00Z,26.5255,-82.0032,2.29,8.59,1111122 
SCCF RECON,ioos:station:SCCF:13:1,2010-12-09T20:00:00Z,26.5255,-82.0032,2.32,8.95,1111122 
SCCF RECON,ioos:station:SCCF:13:1,2010-12-09T21:00:00Z,26.5255,-82.0032,2.35,8.64,1111122 
SCCF RECON,ioos:station:SCCF:13:1,2010-12-09T22:00:00Z,26.5255,-82.0032,2.38,8.56,1111122 
SCCF RECON,ioos:station:SCCF:13:1,2010-12-09T23:00:00Z,26.5255,-82.0032,2.35,8.33,1111122 
SCCF RECON,ioos:station:SCCF:13:1,2010-12-10T00:00:00Z,26.5255,-82.0032,2.29,8.12,1111122 
SCCF RECON,ioos:station:SCCF:13:1,2010-12-10T01:00:00Z,26.5255,-82.0032,2.27,8.14,1111122 
SCCF RECON,ioos:station:SCCF:13:1,2010-12-10T02:00:00Z,26.5255,-82.0032,2.249,8.33,1111122 
SCCF RECON,ioos:station:SCCF:13:1,2010-12-10T03:00:00Z,26.5255,-82.0032,2.24,8.44,1111122 
SCCF RECON,ioos:station:SCCF:13:1,2010-12-10T04:00:00Z,26.5255,-82.0032,2.27,8.61,1111122 
SCCF RECON,ioos:station:SCCF:13:1,2010-12-10T05:00:00Z,26.5255,-82.0032,2.33,8.59,1111122 
SCCF RECON,ioos:station:SCCF:13:1,2010-12-10T06:00:00Z,26.5255,-82.0032,2.41,8.06,1111122 
SCCF RECON,ioos:station:SCCF:13:1,2010-12-10T07:00:00Z,26.5255,-82.0032,2.45,8.07,1111122 
SCCF RECON,ioos:station:SCCF:13:1,2010-12-10T08:00:00Z,26.5255,-82.0032,2.47,8.04,1111122 
SCCF RECON,ioos:station:SCCF:13:1,2010-12-10T09:00:00Z,26.5255,-82.0032,2.46,8.01,1111122 
SCCF RECON,ioos:station:SCCF:13:1,2010-12-10T10:00:00Z,26.5255,-82.0032,2.41,7.92,1111122 
SCCF RECON,ioos:station:SCCF:13:1,2010-12-10T11:00:00Z,26.5255,-82.0032,2.34,7.9,1111122 
SCCF RECON,ioos:station:SCCF:13:1,2010-12-10T12:00:00Z,26.5255,-82.0032,2.28,7.93,1111122 
SCCF RECON,ioos:station:SCCF:13:1,2010-12-10T13:00:00Z,26.5255,-82.0032,2.219,8.13,1111122 
SCCF RECON,ioos:station:SCCF:13:1,2010-12-10T14:00:00Z,26.5255,-82.0032,2.159,8.32,1111122 
SCCF RECON,ioos:station:SCCF:13:1,2010-12-10T15:00:00Z,26.5255,-82.0032,2.1,8.5,1111122 
SCCF RECON,ioos:station:SCCF:13:1,2010-12-10T16:00:00Z,26.5255,-82.0032,2.077,8.74,1111122 
SCCF RECON,ioos:station:SCCF:13:1,2010-12-10T17:00:00Z,26.5255,-82.0032,2.131,8.81,1111122 
SCCF RECON,ioos:station:SCCF:13:1,2010-12-10T18:00:00Z,26.5255,-82.0032,2.22,8.83,1111122 
SCCF RECON,ioos:station:SCCF:13:1,2010-12-10T19:00:00Z,26.5255,-82.0032,2.291,9.52,1111122 
SCCF RECON,ioos:station:SCCF:13:1,2010-12-10T20:00:00Z,26.5255,-82.0032,2.344,9.08,1111122 
SCCF RECON,ioos:station:SCCF:13:1,2010-12-10T21:00:00Z,26.5255,-82.0032,2.38,8.59,1111122 
SCCF RECON,ioos:station:SCCF:13:1,2010-12-10T22:00:00Z,26.5255,-82.0032,2.425,8.6,1111122 
SCCF RECON,ioos:station:SCCF:13:1,2010-12-10T23:00:00Z,26.5255,-82.0032,2.446,8.56,1111122 
SCCF RECON,ioos:station:SCCF:13:1,2010-12-11T00:00:00Z,26.5255,-82.0032,2.41,8.38,1111122 
SCCF RECON,ioos:station:SCCF:13:1,2010-12-11T01:00:00Z,26.5255,-82.0032,2.37,8.42,1111122 
SCCF RECON,ioos:station:SCCF:13:1,2010-12-11T02:00:00Z,26.5255,-82.0032,2.324,8.35,1111122 
SCCF RECON,ioos:station:SCCF:13:1,2010-12-11T03:00:00Z,26.5255,-82.0032,2.3,8.31,1111122 
SCCF RECON,ioos:station:SCCF:13:1,2010-12-11T04:00:00Z,26.5255,-82.0032,2.31,8.43,1111122 
SCCF RECON,ioos:station:SCCF:13:1,2010-12-11T05:00:00Z,26.5255,-82.0032,2.346,8.53,1111122 
SCCF RECON,ioos:station:SCCF:13:1,2010-12-11T06:00:00Z,26.5255,-82.0032,2.4,8.33,1111122 
SCCF RECON,ioos:station:SCCF:13:1,2010-12-11T07:00:00Z,26.5255,-82.0032,2.457,8.07,1111122 
SCCF RECON,ioos:station:SCCF:13:1,2010-12-11T08:00:00Z,26.5255,-82.0032,2.49,8.2,1111122 
SCCF RECON,ioos:station:SCCF:13:1,2010-12-11T09:00:00Z,26.5255,-82.0032,2.5,8.28,1111122 
SCCF RECON,ioos:station:SCCF:13:1,2010-12-11T10:00:00Z,26.5255,-82.0032,2.48,8.32,1111122 
SCCF RECON,ioos:station:SCCF:13:1,2010-12-11T11:00:00Z,26.5255,-82.0032,2.43,8.25,1111122 
SCCF RECON,ioos:station:SCCF:13:1,2010-12-11T12:00:00Z,26.5255,-82.0032,2.36,8.21,1111122 
SCCF RECON,ioos:station:SCCF:13:1,2010-12-11T13:00:00Z,26.5255,-82.0032,2.31,8.07,1111122 
SCCF RECON,ioos:station:SCCF:13:1,2010-12-11T14:00:00Z,26.5255,-82.0032,2.249,8.26,1111122 
SCCF RECON,ioos:station:SCCF:13:1,2010-12-11T15:00:00Z,26.5255,-82.0032,2.19,8.45,1111122 
SCCF RECON,ioos:station:SCCF:13:1,2010-12-11T16:00:00Z,26.5255,-82.0032,2.139,8.71,1111122 
SCCF RECON,ioos:station:SCCF:13:1,2010-12-11T17:00:00Z,26.5255,-82.0032,2.149,8.93,1111122 
SCCF RECON,ioos:station:SCCF:13:1,2010-12-11T18:00:00Z,26.5255,-82.0032,2.199,9.0,1111122 
SCCF RECON,ioos:station:SCCF:13:1,2010-12-11T19:00:00Z,26.5255,-82.0032,2.26,8.95,1111122 
SCCF RECON,ioos:station:SCCF:13:1,2010-12-11T20:00:00Z,26.5255,-82.0032,2.32,9.28,1111122 
SCCF RECON,ioos:station:SCCF:13:1,2010-12-11T21:00:00Z,26.5255,-82.0032,2.373,8.98,1111122 